Weather in Kazym

Russia / Khanty-Mansi Autonomous Okrug — Yugra     63°42′08″N   67°14′30″E
temp.,
°C
wind,
m/s
gust,
m/s
humid.,
%
clouds,
%
prec.,
mm/h
press.,
hPa
HPBL,
m
8 august, mon
mon823:00+20sw22687 0.0 101712
02:00+18wsw22705 0.0 101723
05:00+17sw24735 0.0 101767
08:00+24wsw35521 0.0 1017342
11:00+27wsw354571 0.0 1016779
14:00+31w463019 0.0 10152922
17:00+31w452913 0.0 10142825
20:00+26wsw224621 0.0 101420
9 august, tue
tue923:00+24wsw224894 0.0 101421
02:00+21wsw2255100 0.0 101435
05:00+18nnw366935 0.0 1015136
08:00+21nnw45655 0.0 1017608
11:00+24nnw45465 0.0 10181223
14:00+25nnw553914 0.0 10181855
17:00+23n55388 0.0 10191911
20:00+19ne115350 0.0 102015
10 august, wed
wed1023:00+14ene226117 0.0 102123
02:00+14n256296 0.0 1022151
05:00+15nne275962 0.0 1022260
08:00+16nne3552100 0.0 1023534
11:00+18nne2444100 0.0 1023802
14:00+21nnw233591 0.0 10231690
17:00+22nw233459 0.0 10212214
20:00+18nne2345100 0.0 102267
11 august, thu
thu1123:00+15ne374987 0.0 1022250
02:00+14e2653100 0.0 1021207
05:00+13ese2555100 0.0 1021161
08:00+14e2458100 0.0 1020160
11:00+11ese3787100 1.2 1019251
14:00+11ese4996100 6.0 1018416
17:00+11e51296100 12.0 1015601
20:00+11e51297100 8.5 1013582
12 august, fri
fri1223:00+12ese5129795 10.3 1011517
02:00+11ene3696100 0.0 1008307
05:00+11nne2398100 0.1 1007155
08:00+12n2496100 0.0 1006244
11:00+13nnw3491100 0.1 1005455
14:00+15nw2382100 0.1 1005656
17:00+15wnw2481100 0.1 1004588
20:00+14w1285100 0.1 100364